Flag for Austria Weather past 2 weeks in Stockerau, Lower Austria, Austria

Now
57 °F

Partly sunny.


Feels Like: 57 °F
Forecast: 46 / 59 °F
Wind: 5 mph from Northeast

Location: Tulln Airport

Current Time: Apr 27, 2015 at 8:42:07 AM

Latest Report: Apr 27, 2015 at 7:50 AM


Visibility: 31 mi

Pressure: 29.65 "Hg

Humidity: 82%

Dew point: 52 °F

Location of StockerauLocation

Historic Weather in Stockerau — Graph

°F

Stockerau temperature yesterday

Maximum temperature yesterday: 72 °F (at 2:50 PM)
Minimum temperature yesterday: 55 °F (at 5:50 AM)
Average temperature yesterday: 65 °F

Past Weeks' High & Low Weather Summary

 TemperatureHumidityPressure
High77 °F (Apr 16, 12:50 PM)100% (Apr 13, 5:50 AM)30.45 "Hg (Apr 13, 5:50 AM)
Low36 °F (Apr 19, 5:50 AM)22% (Apr 16, 12:50 PM)29.65 "Hg (Apr 27, 5:50 AM)
Average58 °F54%30.08 "Hg
* Reported Apr 12 6:50 AM — Apr 27 6:50 AM, Stockerau, Weather by CustomWeather, © 2015

Note: Actual official high and low records may vary slightly from our data, if they occured in-between our weather recording intervals... More about our weather records

Advertising

Stockerau weather history for previous 24 hours

 ConditionsComfort  
Time TempWeatherWind HumidityBarometerVisibility
6:50 AM
Mon, Apr 27
55 °FBroken clouds.8 mph82%29.65 "Hg31 mi
5:50 AM50 °FPassing clouds.2 mph94%29.65 "Hg31 mi
9:50 PM
Sun, Apr 26
59 °FPassing clouds.1 mph72%29.74 "Hg19 mi
8:50 PM61 °FScattered clouds.8 mph68%29.74 "Hg31 mi
7:50 PM64 °FPartly sunny.6 mph56%29.74 "Hg37 mi
6:50 PM68 °FScattered clouds.10 mph49%29.77 "Hg37 mi
5:50 PM72 °FScattered clouds.10 mph44%29.77 "Hg25 mi
4:50 PM72 °FPassing clouds.7 mph47%29.77 "Hg25 mi
3:50 PM72 °FPassing clouds.10 mph47%29.80 "Hg25 mi
2:50 PM72 °FScattered clouds.9 mph50%29.80 "Hg25 mi
1:50 PM68 °FScattered clouds.14 mph53%29.83 "Hg25 mi
12:50 PM68 °FBroken clouds.16 mph53%29.86 "Hg25 mi
11:50 AM66 °FBroken clouds.13 mph64%29.86 "Hg25 mi
10:50 AM64 °FPartly sunny.14 mph64%29.86 "Hg22 mi
9:50 AM63 °FPartly sunny.10 mph73%29.86 "Hg22 mi
8:50 AM61 °FPartly sunny.10 mph72%29.86 "Hg19 mi
Weather by CustomWeather, © 2015

See weather overviewHow to use our weather pages